Location: Rounton
(54.4000°N, 1.3500°W)
Time: 12:37:47
(UTC+01:00)

Vanguard 1 - Pass Details

Date: 28 February 2024
Orbit: 653 x 3825 km, 34.2° (Epoch: 22 April)

Event Time Altitude Azimuth Distance (km) Brightness Sun altitude
Rises 22:40:59 0° 260° (W) 6,164 14.4 -39.6°
Reaches altitude 10° 22:44:59 10° 252° (WSW) 5,539 14.0 -39.9°
Enters shadow 22:56:59 35° 211° (SSW) 4,660 13.1 -40.7°
